Location: Poughquag
(41.6090°N, 73.6820°W)
Time: 13:14:45
(UTC-04:00)

DIWATA 2B (PO-101) - Pass Details

Date: 31 May 2024
Orbit: 574 x 588 km, 98.1° (Epoch: 14 June)

Event Time Altitude Azimuth Distance (km) Brightness Sun altitude
Rises 04:20:36 0° 165° (SSE) 2,782 ? -10.2°
Reaches altitude 10° 04:22:44 10° 165° (SSE) 1,886 ? -9.9°
Maximum altitude 04:26:50 87° 74° (ENE) 584 ? -9.4°
Drops below altitude 10° 04:30:56 10° 348° (NNW) 1,894 ? -8.8°
Sets 04:33:05 0° 348° (NNW) 2,796 ? -8.5°
